Regional Weather Roundup
Issued by NWS

Home | Current Version | Previous Version | Graphics & Text | Print | Product List | Glossary On
Versions: 1 2 3 4 5 6 7 8 9 10 11 12 13 14 15 16 17 18 19 20 21 22 23 24 25 26 27 28 29 30 31 32 33 34 35 36 37 38 39 40 41 42 43 44 45 46 47 48 49 50
108
ASUS43 KMKX 231600
RWRWI

WISCONSIN REGIONAL WEATHER ROUNDUP
NATIONAL WEATHER SERVICE MILWAUKEE/SULLIVAN WI
1000 AM CST THU FEB 23 2017

NOTE: "FAIR" INDICATES FEW OR NO CLOUDS BELOW 12,000 FEET WITH NO
SIGNIFICANT WEATHER AND/OR OBSTRUCTIONS TO VISIBILITY.

WIZ001-002-006>008-014>016-023>028-231700-
NORTHWEST WISCONSIN

CITY           SKY/WX    TMP DP  RH WIND       PRES   REMARKS
SUPERIOR ARPT  CLOUDY    29  24  83 NW9       29.97R WCI  20
ASHLAND        CLOUDY    32  25  75 N8        29.94S WCI  25
HAYWARD        CLOUDY    30  24  78 N8        29.91S WCI  22
SIREN          CLOUDY    29  23  77 NE13      29.94R WCI  19
CUMBERLAND     CLOUDY    30  25  80 N9        29.90R WCI  22
RICE LAKE      CLOUDY    32  27  81 N14       29.92R WCI  22
CHETEK         CLOUDY    33  28  80 N6        29.91R WCI  27
LADYSMITH      CLOUDY    33  29  86 N7        29.90R WCI  27
EAU CLAIRE     NOT AVBL
MENOMONIE      CLOUDY    36  29  75 N9        29.92R WCI  29
NEW RICHMOND   PTSUNNY   32  25  74 NE8       29.93R WCI  25
OSCEOLA        CLOUDY    32  26  77 N8        29.96R WCI  25
$$

WIZ003>005-009-010-017-018-231700-
NORTH CENTRAL WISCONSIN

CITY           SKY/WX    TMP DP  RH WIND       PRES   REMARKS
MANITOWISH WTR CLOUDY    30  30 100 N5        29.86R WCI  25
ARBOR VITAE    CLOUDY    32  28  86 N5          N/A  WCI  27
WOODRUFF       CLOUDY    32  28  86 N5          N/A  WCI  27
RHINELANDER    CLOUDY    32  25  75 N10G16    29.86R WCI  24
EAGLE RIVER    CLOUDY    30  24  78 N10       29.86R WCI  21
LAND O LAKES   MOSUNNY   31  26  82 N8        29.87R WCI  23
PHILLIPS       CLOUDY    31  27  84 N10       29.87R WCI  23
TOMAHAWK       CLOUDY    32  26  79 NE9       29.87R WCI  24
MEDFORD        CLOUDY    33  29  83 N6        29.87R WCI  28
MERRILL        NOT AVBL
$$

WIZ029-030-035-036-043>047-231700-
CENTRAL WISCONSIN

CITY           SKY/WX    TMP DP  RH WIND       PRES   REMARKS
WAUSAU         CLOUDY    35  26  69 N12       29.87R WCI  27
MOSINEE        CLOUDY    36  30  80 NW10G17   29.87R WCI  28
MARSHFIELD     CLOUDY    37  28  70 N10       29.86R WCI  30
STEVENS POINT  PTSUNNY   36  28  72 NW7       29.86R WCI  30
WAUPACA        SUNNY     42  30  63 N9        29.86R
WAUTOMA        MOSUNNY   42  31  64 N12       29.85R
WISC RAPIDS    PTSUNNY   42  30  62 N14       29.88R
CAMP DOUGLAS   NOT AVBL
$$

WIZ011>013-019>022-031-037>040-048>050-231700-
NORTHEAST WISCONSIN

CITY           SKY/WX    TMP DP  RH WIND       PRES   REMARKS
ANTIGO         CLOUDY    31  27  84 N10       29.85R WCI  23
SHAWANO        CLOUDY    38  30  71 N12       29.86R WCI  31
OCONTO         CLOUDY    36  28  73 N8G17     29.84S WCI  30
STURGEON BAY   CLOUDY    36  30  79 N13       29.85  WCI  27
GREEN BAY      CLOUDY    39  31  72 N13       29.85R WCI  31
MANITOWOC      NOT AVBL
APPLETON       PTSUNNY   37  28  70 NE12      29.83R WCI  30
CLINTONVILLE   CLOUDY    39  30  70 NE10      29.85R WCI  32
OSHKOSH        SUNNY     42  31  64 N9        29.84R
$$

WIZ032>034-041-042-053>061-231700-
SOUTHWEST WISCONSIN

CITY           SKY/WX    TMP DP  RH WIND       PRES   REMARKS
LA CROSSE      CLOUDY    42  31  64 N10       29.88S
SPARTA         PTSUNNY   40  32  74 NE8       29.89R WCI  34
VIROQUA        CLOUDY    38  32  80 N10       29.84R WCI  30
BOSCOBEL       CLOUDY    45  32  60 NE8       29.85R
PRAIRIE DU CHI CLOUDY    42  32  67 N8        29.84S
PLATTEVILLE    PTSUNNY   42  38  86 N16       29.81S
$$

WIZ056-057-062-063-064-067-068-231700-
SOUTH CENTRAL WISCONSIN

CITY           SKY/WX    TMP DP  RH WIND       PRES   REMARKS
REEDSBURG      CLOUDY    38  32  78 N8        29.85R WCI  32
BARABOO/DELLS  CLOUDY    38  31  76 N6        29.84R WCI  34
LONE ROCK      NOT AVBL
MINERAL POINT  CLOUDY    43  37  81 N14       29.80F
MADISON        CLOUDY    41  36  82 N16       29.81R
MIDDLETON      CLOUDY    42  37  82 N10       29.83R
WATERTOWN      CLOUDY    41  39  94 N13G18    29.81S
MONROE         CLOUDY    43  36  75 NE17G23   29.79R
JANESVILLE     CLOUDY    45  39  81 N12G21    29.79R
$$

WIZ051-052-058>065-066-070>072-231700-
SOUTHEAST WISCONSIN

CITY           SKY/WX    TMP DP  RH WIND       PRES   REMARKS
MILWAUKEE      CLOUDY    43  38  82 NE9       29.82R
WAUKESHA       CLOUDY    41  37  87 N7        29.81R
MILWAUKEE/TIMM CLOUDY    43  36  75 N10       29.80S
RACINE         CLOUDY    42  36  79 N13G21    29.85R
KENOSHA        CLOUDY    42  38  85 NE16      29.80S FOG
FOND DU LAC    CLOUDY    42  32  67 NE13      29.84R
SHEBOYGAN        N/A     41  33  73 N9        29.83R
WEST BEND      CLOUDY    41  37  87 N8        29.82R
JUNEAU         CLOUDY    40  35  82 N13       29.83R WCI  32
$$

LSZ147-162-231700-
LAKE SUPERIOR

STATION/POSITION TIME  TEMP    WIND        PRES    WAVE
                       AIR SEA DIR/SP/G            HT/PER
                 (UTC) (F)     (DEG/KT/KT) (MB)    (FT/S)
DEVILS ISLAND    1500   31     310/ 17/ 19 1014.0F
PORT WING        1530   31     340/  9/ 12 1014.6R
SAXON HARBOR     1540   33     330/ 10/ 12 1013.2S
$$

LMZ867-665-643>646-231700-
LAKE MICHIGAN

STATION/POSITION TIME  TEMP    WIND        PRES    WAVE
                       AIR SEA DIR/SP/G            HT/PER
                 (UTC) (F)     (DEG/KT/KT) (MB)    (FT/S)
CHAMBERS ISLAND  1540   34     330/ 12/ 16 1010.2F
NORTHPORT PIER   1540   34     330/ 16/ 19 1010.2F
SISTER BAY       1505   34     350/ 14/ 16   N/A
KEWAUNEE LAKESHO 1530   37     350/  8/ 12 1009.5R
SHEBOYGAN LAKESH 1500   38      10/ 14/ 16 1010.0R
PORT WASHINGTON  1540   43      20/  9/ 13 1010.8R
MILWAUKEE LAKESH 1540   40      30/ 12/ 14   N/A
KENOSHA   LAKESH 1500   38      10/  9/ 12 1009.5
$$

TC  - TEMPERATURE IN CELSIUS
VSB - VISIBILITY IN STATUTE MILES
WCI - WIND CHILL INDEX
HX  - HEAT INDEX





USA.gov is the U.S. government's official web portal to all federal, state and local government web resources and services.